Regional Weather Roundup
Issued by NWS

Home | Current Version | Previous Version | Text Only | Print | Product List | Glossary Off
Versions: 1 2 3 4 5 6 7 8 9 10 11 12 13 14 15 16 17 18 19 20 21 22 23 24 25 26 27 28 29 30 31 32 33 34 35 36 37 38 39 40 41 42 43 44 45 46 47 48 49 50

000
ASUS43 KFSD 282310
RWRSD

WEATHER ROUNDUP FOR SOUTH DAKOTA
NATIONAL WEATHER SERVICE SIOUX FALLS SD
500 PM CST FRI NOV 28 2014

NOTE: "FAIR" INDICATES FEW OR NO CLOUDS BELOW 12,000 FEET WITH NO
SIGNIFICANT WEATHER AND/OR OBSTRUCTIONS TO VISIBILITY.


SDZ001>005-009-010-012>017-290000-
NORTHWEST AND NORTH CENTRAL SOUTH DAKOTA

CITY           SKY/WX    TMP DP  RH WIND       PRES   REMARKS
BUFFALO          N/A     49  32  52 SW12      29.46F
FAITH            N/A     40  29  64 S15       29.53F
MOBRIDGE       PTCLDY    26  20  77 E13       29.55F WCI  15
$$

SDZ012>016-024>037-041>051-057-063-072>074-290000-
SOUTHWEST AND SOUTH CENTRAL SOUTH DAKOTA

CITY           SKY/WX    TMP DP  RH WIND       PRES   REMARKS
RAPID CTY ARPT PTCLDY    56  24  29 W10       29.57R
PIERRE         CLEAR     35  26  69 E8        29.58F WCI  29
CUSTER         CLOUDY    47  22  37 W10       29.66F
ELLSWORTH AFB  PTCLDY    50  31  48 NW8       29.56S
PHILIP         PTCLDY    48  31  51 E7        29.55F
PINE RIDGE     PTCLDY    53  27  36 W8        29.63S
SPEARFISH      FAIR      55  21  26 SW21G29   29.59F
WINNER         FAIR      52  30  43 CALM      29.60F
$$

SDZ004>011-016>023-039-040-290000-
NORTHEAST SOUTH DAKOTA

CITY           SKY/WX    TMP DP  RH WIND       PRES   REMARKS
ABERDEEN       CLEAR     19  12  74 E3        29.69R
WATERTOWN      MOCLDY    17  13  84 E7        29.67S WCI   8
SISSETON         N/A     16  13  88 S12       29.72F WCI   3
$$

SDZ017-020-022-023-036>040-048>070-290000-
SOUTHEAST SOUTH DAKOTA

CITY           SKY/WX    TMP DP  RH WIND       PRES   REMARKS
SIOUX FALLS    MOCLDY    31  26  82 E7        29.67R WCI  24
HURON          PTCLDY    34  25  69 CALM      29.66S
CHAMBERLAIN    CLEAR     41  27  57 E6        29.61S
MITCHELL       CLEAR     36  28  73 E6        29.64F
YANKTON        CLEAR     39  28  65 E9        29.65S
$$

ABBREVIATIONS USED IN REMARKS
   TC - TEMPERATURE IN CELSIUS
  WCI - WIND CHILL INDEX
   HX - HEAT INDEX
  VSB - VISIBILITY



USA.gov is the U.S. government's official web portal to all federal, state and local government web resources and services.